Retour au catalogue

STARLINK-34726

ActifCommunicationsSSO
NORAD 64935·PAYLOAD·🇺🇸 United States

Lancé Jul 26, 2025 depuis Vandenberg Space Force Base

Loading…

Prochains Passages (prochaines 24 heures)

TLE

FraisSource: CelesTrak SupGP

Époque: Sep 15, 2026, 02:34 UTC

1 64935C 25158D   26258.10743056  .00020941  00000+0  65017-3 0  2582
2 64935  97.2840 116.5014 0001971 101.4491 140.1494 15.33422277    15

Suivez STARLINK-34726 en temps réel avec AllMySat

Download on the App Store